User: anonymous
Location: Kailua
(21.4020°N, 157.7390°W)
Time: 22:44:17
(UTC-10:00)
Language:

Cosmos 2297 Rocket - Orbit

View from above orbital plane
View from above orbital plane
View from above satellite
View from above satellite

Ground track
Ground track

The orbit data is extracted from the following two-line orbital elements,

1 23405U 94077B   14293.51553243  .00000403  00000-0  23251-3 0  9733
2 23405 070.9826 096.1590 0003874 318.2188 097.4457 14.15111112 28195
Epoch (UTC): 20 October 2014 12:22:22
Eccentricity: 0.0003874
inclination: 70.9826°
perigee height: 839 km
apogee height: 845 km
right ascension of ascending node: 96.1590°
argument of perigee: 318.2188°
revolutions per day: 14.15111112
mean anomaly at epoch: 97.4457°
orbit number at epoch: 2819

The dashed part of the orbit path shows where the satellite is in the earth's shadow,  

DLR